Temp
10 9 10 10 10 10 11 13 14 16 18 19 19 19 19 19 20 20 20 20 20 20 21 21 21 22 22 22 22 23 23 23 23 24 24 23 23 23 23 23 23 24 24 24 24 25 26 27 27 27 28 27 27 26 25 25 25 27 29 27 26 27 28 28 30 29 29 29 27 25 27 27 27 25 25 24 25 26 25 25 25 24 24 23 20 19 18 16
9 9 10 9 10 10 10 12 14 15 17 18 19 19 19 20 20 20 20 20 20 20 21 21 21 22 22 22 22 22 22 22 24 25 24 23 23 23 23 23 23 24 24 24 25 26 27 28 28 27 28 28 26 26 25 25 26 27 29 27 27 29 29 29 30 29 28 28 28 27 27 28 28 27 25 25 26 26 26 26 26 25 24 22 20 19 18 16
9 9 9 9 9 10 10 11 14 15 17 18 19 19 19 19 20 20 20 20 20 20 21 21 22 22 22 22 22 22 22 23 25 25 22 22 23 23 23 23 23 24 24 24 25 26 27 28 28 28 28 28 27 26 26 26 26 27 28 28 28 29 28 28 28 28 26 27 28 27 26 27 27 27 26 26 27 27 26 27 27 26 26 24 21 20 18 17
9 9 9 9 9 9 9 10 13 15 16 18 19 19 19 19 19 20 20 20 20 20 21 21 21 22 22 22 22 22 22 23 25 23 22 22 22 23 23 23 23 24 24 24 24 25 26 28 28 28 28 28 27 27 27 26 26 27 27 28 28 28 28 27 26 26 25 25 27 27 26 26 27 26 26 26 27 27 28 29 28 28 28 26 22 21 19 18
9 9 9 9 9 9 9 9 12 14 16 18 18 19 19 19 19 19 19 20 20 20 21 21 21 22 22 22 22 22 22 24 24 22 21 22 22 23 23 23 23 24 24 24 25 25 26 28 28 28 28 28 27 27 28 26 25 27 27 26 26 27 27 25 25 24 23 25 26 26 26 26 26 25 26 26 27 28 28 28 29 28 28 26 23 21 20 20
9 9 9 9 8 9 9 9 11 13 15 17 18 18 18 18 19 19 19 20 20 20 21 21 21 22 22 22 22 21 22 24 22 21 22 22 22 23 23 23 23 24 24 24 25 26 26 28 27 27 28 28 27 27 27 25 25 27 27 26 25 26 26 24 24 22 22 25 26 26 26 26 26 26 27 26 27 28 27 26 26 26 26 26 24 22 21 20
9 9 9 8 8 8 8 9 9 11 13 15 17 18 18 18 18 19 19 20 20 20 21 21 21 22 22 22 21 21 24 24 21 21 22 22 22 23 23 23 24 24 24 25 26 26 27 27 27 28 28 27 27 27 26 25 25 26 27 25 24 24 24 23 23 21 22 24 25 25 25 25 26 26 26 25 26 28 26 25 24 23 24 25 24 22 21 21
9 8 8 8 8 8 8 9 9 10 11 14 16 17 18 18 18 19 19 20 20 20 21 21 21 21 21 21 22 23 25 23 21 21 22 22 22 23 23 23 24 23 24 25 26 27 27 27 27 28 28 27 27 26 25 26 26 27 27 25 24 24 23 23 22 22 22 23 24 23 24 26 26 25 24 25 27 28 27 25 24 23 23 23 24 23 22 22
8 8 8 8 8 8 8 8 9 10 11 12 14 16 17 17 18 18 19 19 20 20 20 21 21 21 21 21 23 25 24 21 20 21 22 22 22 23 23 23 23 24 24 24 25 26 26 27 27 27 27 26 27 26 25 26 26 26 26 25 24 24 23 23 23 23 23 24 23 24 25 26 24 23 24 26 27 27 26 25 24 24 23 23 24 24 23 23
8 8 8 8 7 8 8 8 9 10 11 12 13 15 16 17 18 18 18 19 19 20 20 21 21 21 21 21 24 25 21 19 20 21 22 22 23 23 23 23 23 24 25 25 25 26 26 27 27 27 27 26 26 25 25 25 25 25 25 25 25 24 23 23 24 23 23 24 23 24 26 25 23 23 26 27 25 24 25 25 25 24 24 25 24 24 24 24
8 8 8 8 8 8 8 8 9 10 11 12 14 15 16 17 18 18 18 19 19 19 20 21 21 21 21 22 25 24 20 19 20 21 22 22 23 22 22 23 23 24 25 25 24 23 24 26 26 26 26 26 26 25 24 23 24 25 25 25 24 24 24 23 24 24 23 24 23 24 25 25 24 23 26 26 23 23 25 26 25 24 24 25 25 25 24 24
8 8 8 8 8 8 8 8 9 10 11 12 15 16 16 17 18 18 18 19 19 19 20 20 21 21 21 24 24 21 19 19 20 21 21 22 22 22 23 23 23 23 24 25 24 22 23 24 25 26 26 26 26 25 24 23 24 25 25 26 25 25 25 24 25 24 24 24 23 24 24 25 25 24 27 26 23 23 24 25 26 25 25 25 25 25 24 23
8 8 8 8 8 8 8 8 9 10 11 13 15 16 17 17 18 18 18 19 19 19 20 20 21 20 22 24 21 18 18 19 20 21 21 22 22 22 22 23 23 23 24 25 23 22 23 23 24 25 25 26 25 24 24 23 24 25 25 26 25 25 25 25 25 23 24 23 23 24 23 25 28 27 27 25 23 24 24 26 26 26 26 26 25 24 23 23
8 8 8 8 8 8 8 8 9 10 11 13 14 16 17 17 18 18 18 19 19 19 20 20 20 21 22 23 19 17 19 19 20 20 20 21 21 21 22 22 23 23 23 23 22 22 23 23 25 25 24 25 24 22 24 24 24 25 25 25 25 24 24 25 24 23 24 22 23 24 22 25 30 28 25 23 23 24 25 26 27 27 27 26 26 24 24 24
8 8 8 8 8 8 9 9 9 11 12 13 14 15 16 17 18 18 19 19 19 19 19 20 20 21 24 22 18 18 19 19 20 19 20 21 21 22 22 22 22 22 23 23 22 22 23 23 25 25 23 23 23 24 25 25 25 26 24 23 25 24 23 24 23 23 24 23 23 24 22 25 29 27 23 22 23 24 25 26 27 27 27 27 26 25 25 25
8 8 8 8 8 8 9 10 10 11 13 14 14 15 16 17 17 18 18 18 19 19 19 20 20 21 24 22 18 18 19 19 20 19 20 21 21 22 22 22 22 22 22 22 23 23 24 24 23 23 23 23 24 26 25 24 24 25 24 22 23 23 24 24 23 22 23 23 23 23 23 26 28 27 23 22 22 23 24 26 26 27 27 27 26 26 25 25
9 9 8 8 8 9 9 10 11 12 13 14 14 15 16 16 17 17 18 18 19 19 19 21 21 22 22 20 19 20 20 19 19 19 20 20 21 21 22 23 23 23 23 23 23 23 25 24 21 22 24 25 26 26 24 22 22 23 24 23 23 24 24 24 23 22 22 23 23 23 23 25 27 27 26 23 23 24 25 26 27 27 27 27 27 26 26 25
9 9 9 9 9 9 10 10 11 12 13 14 14 15 16 16 17 17 18 18 19 19 19 20 21 22 21 19 20 20 19 18 18 19 20 20 21 21 21 23 23 23 24 24 24 24 24 24 23 24 25 24 26 25 22 21 23 23 23 23 23 24 24 24 23 22 22 23 23 24 24 24 26 27 27 26 25 25 25 26 27 27 27 27 27 26 26 26
9 9 9 9 9 10 10 11 11 12 13 14 15 15 16 16 17 17 18 18 19 21 21 21 22 22 21 20 20 18 17 18 18 19 19 20 20 21 22 23 23 24 24 24 24 24 24 24 23 23 24 24 25 25 24 24 25 24 24 23 23 23 23 25 24 21 22 23 23 24 24 25 26 26 27 28 28 27 26 26 26 26 26 26 26 27 26 26
10 10 9 9 9 10 11 11 12 12 13 14 14 15 17 18 19 19 19 19 20 20 20 22 22 21 20 20 18 17 17 18 19 19 19 19 20 22 23 23 23 23 23 24 23 22 22 23 23 23 25 25 26 26 25 25 25 25 24 24 23 23 23 25 23 20 21 22 24 25 25 25 26 26 27 28 28 27 27 27 26 26 26 26 26 26 26 26
10 10 10 10 10 11 11 11 12 12 13 13 13 16 20 20 20 20 20 20 19 18 19 19 20 20 19 19 18 18 19 19 20 20 19 19 20 22 23 23 23 23 23 23 23 22 22 22 24 25 25 25 25 25 24 24 24 24 24 23 23 23 23 24 23 20 21 21 24 25 25 25 26 26 27 27 27 27 27 27 26 26 26 26 26 26 26 27
11 11 11 11 11 11 11 10 11 12 13 13 13 16 20 19 18 18 19 21 20 17 18 18 18 19 18 18 17 18 21 21 20 20 19 19 21 22 22 22 23 23 22 22 22 22 22 23 24 25 24 24 23 23 24 24 24 23 23 23 22 23 24 23 21 20 21 21 23 25 23 24 25 26 27 27 27 27 28 28 27 27 27 27 27 27 27 26
11 11 11 11 12 11 11 10 11 12 12 13 14 16 17 16 17 17 18 22 20 17 18 19 20 20 18 18 18 17 21 22 21 20 19 20 21 22 22 22 23 23 22 22 23 22 22 23 23 23 23 23 22 22 23 23 23 23 23 22 22 23 23 22 21 21 21 21 23 23 22 22 25 26 27 27 27 28 28 28 27 27 26 26 27 27 26 26
12 11 11 11 11 11 11 10 10 11 11 12 14 16 16 16 17 17 18 22 21 18 18 18 19 20 20 19 18 19 21 22 22 21 19 20 21 21 22 23 23 23 22 23 23 23 23 21 20 21 22 23 22 22 22 22 22 23 23 22 22 23 23 22 22 21 22 22 21 21 21 22 25 27 28 29 28 27 27 27 26 25 25 25 25 25 25 25
12 12 11 11 11 11 10 10 11 11 11 12 14 15 16 16 16 16 19 21 21 19 18 17 18 19 20 18 18 20 21 21 21 20 19 20 21 21 21 22 22 23 23 23 23 23 22 19 19 21 21 22 22 22 22 22 22 23 23 23 24 24 23 22 22 21 22 21 20 20 21 22 26 27 28 29 27 27 27 26 26 26 25 24 24 23 24 24
12 12 12 11 11 11 10 12 12 11 12 13 15 16 16 16 16 16 19 21 20 19 18 18 19 19 19 19 19 20 21 20 18 17 18 18 20 21 21 21 21 22 23 23 22 22 21 18 19 21 20 21 21 21 22 22 22 22 21 21 23 23 22 21 21 21 21 21 20 20 20 21 23 25 27 28 28 28 28 27 27 27 27 26 25 25 25 24
12 12 12 12 11 11 11 13 12 11 14 15 15 16 16 16 16 16 19 19 19 20 19 18 18 19 19 18 19 21 21 19 17 17 18 18 19 20 21 21 21 21 22 22 21 21 20 18 18 20 20 20 21 22 22 22 22 21 18 18 21 22 21 21 21 21 21 21 21 20 20 20 20 23 26 27 27 28 28 28 28 28 28 28 27 26 26 25
11 12 12 12 11 12 12 13 12 13 15 15 15 16 16 16 15 17 19 18 18 21 20 17 17 18 18 17 19 20 18 18 19 18 17 17 18 20 21 22 22 21 21 21 21 20 20 18 19 19 20 21 21 21 21 22 22 19 16 18 20 21 21 21 21 21 21 20 20 20 20 20 20 23 26 26 26 27 28 28 29 29 29 28 27 26 25 24
11 11 11 11 12 12 12 12 13 14 14 14 14 15 15 15 16 19 19 17 19 20 19 18 17 17 17 17 18 18 18 18 19 17 16 17 18 19 20 21 22 22 21 21 21 19 18 17 18 19 20 21 20 18 18 21 21 18 17 19 20 20 20 20 21 21 20 20 20 20 20 20 21 23 25 24 24 26 28 29 30 29 28 27 26 24 23 22
11 11 11 11 11 11 11 11 13 14 14 14 14 14 15 15 17 19 16 17 20 19 17 17 17 17 18 18 18 18 19 18 17 17 17 19 18 19 19 19 21 21 19 20 20 18 17 15 16 18 19 20 18 15 15 17 19 18 19 20 20 20 20 20 21 20 20 20 20 20 21 21 20 22 25 25 25 27 28 30 30 29 27 25 24 24 23 22
10 11 11 11 11 11 11 12 13 14 13 14 14 13 15 16 18 18 16 18 20 18 16 17 17 18 18 19 19 18 18 17 17 17 18 18 18 19 19 19 20 20 19 19 19 17 17 16 17 17 16 18 18 16 15 16 17 18 21 21 20 20 20 20 20 19 20 20 20 19 20 21 20 22 25 26 26 27 28 29 30 29 28 26 24 23 23 22
10 10 11 11 11 11 11 12 13 13 13 13 13 13 16 16 16 17 17 18 19 18 18 17 17 17 18 19 19 18 18 18 17 18 18 18 18 18 19 20 20 19 19 19 19 17 17 18 18 16 15 17 19 18 17 16 17 19 21 21 20 20 20 20 20 19 20 20 18 18 19 20 21 23 26 26 26 27 27 28 28 28 28 27 25 24 23 21
10 10 11 11 11 11 11 12 12 12 12 13 12 14 17 16 15 17 18 19 19 18 18 17 16 17 18 19 19 18 18 18 17 18 19 19 19 19 20 21 21 21 20 20 19 18 18 18 17 16 16 16 19 20 18 17 18 19 21 20 20 20 20 20 20 20 20 19 17 17 19 19 20 23 26 26 27 27 27 26 26 25 25 25 25 24 22 21
10 10 10 10 11 11 11 11 12 12 12 12 12 14 15 14 15 17 18 19 18 17 17 17 16 17 18 18 18 18 18 18 17 18 18 18 18 19 19 20 21 21 21 21 20 19 19 19 18 18 18 17 18 20 21 20 19 19 22 21 20 20 20 20 20 20 20 19 17 17 19 20 21 23 24 25 25 25 25 24 24 23 23 22 23 22 22 21
9 10 10 10 10 11 11 11 11 11 12 11 11 13 14 14 15 16 17 18 17 16 17 17 17 17 17 17 16 17 17 17 17 17 17 18 18 19 20 20 20 21 20 20 20 20 20 20 19 18 18 18 18 20 22 21 19 19 21 21 20 21 21 20 19 19 19 19 18 17 18 20 22 24 25 25 25 25 24 24 23 23 23 22 22 22 22 21
9 9 10 10 10 10 10 10 11 11 12 11 10 11 14 14 14 15 17 18 18 17 16 17 17 17 17 17 16 16 16 16 16 17 17 18 18 19 20 21 20 20 20 20 21 21 20 19 17 16 17 18 17 19 20 20 20 20 19 19 20 21 21 20 18 17 17 18 20 19 19 21 22 24 26 26 26 26 26 25 25 25 25 24 24 23 23 22
9 10 10 10 10 10 10 10 10 10 11 11 11 11 12 13 14 15 16 17 18 18 17 17 17 17 18 17 16 16 16 17 16 16 17 17 18 19 19 20 21 20 21 21 21 21 21 19 15 15 17 16 15 17 18 17 18 19 19 19 20 20 20 21 19 18 18 19 20 20 20 21 21 22 25 27 26 26 26 27 27 27 26 25 25 25 24 22
9 10 10 11 10 10 10 10 10 10 10 10 11 11 10 11 14 14 15 16 17 18 18 18 18 18 18 18 18 17 16 17 16 16 18 17 18 20 19 19 20 20 21 22 21 21 21 20 16 13 15 15 14 16 18 16 16 18 18 19 20 19 19 20 19 19 19 19 20 20 20 20 20 21 24 25 25 26 27 27 27 27 27 27 26 26 24 22
9 10 11 11 10 10 10 9 9 10 10 10 10 11 10 10 12 13 13 15 16 17 18 18 19 18 18 19 19 17 16 18 17 16 18 18 18 20 20 19 19 19 20 21 20 20 20 20 17 13 13 16 15 16 18 17 16 17 18 19 19 19 20 20 20 19 19 19 20 20 20 20 21 23 24 25 26 27 27 27 27 27 27 27 27 26 24 22
9 10 11 11 10 10 10 9 9 10 10 10 10 11 11 11 12 13 13 13 14 15 16 18 19 18 18 18 19 18 17 18 18 17 18 19 19 20 20 20 19 19 20 20 20 20 19 20 19 14 13 15 16 17 18 18 17 16 17 18 18 18 19 19 19 20 20 19 20 20 20 20 23 26 26 26 27 27 27 27 27 27 27 27 26 25 24 22
9 9 10 11 10 10 9 9 9 10 11 11 11 12 12 13 13 13 12 13 13 13 14 15 16 17 17 17 17 17 17 17 18 18 18 19 19 19 19 20 20 19 19 19 19 20 19 19 19 16 14 16 17 17 18 18 19 18 18 18 18 19 18 17 18 19 19 19 20 20 19 20 24 26 26 26 27 27 26 26 26 27 27 27 26 24 22 21
9 9 10 10 9 10 9 9 10 10 11 12 13 13 13 13 13 13 12 12 13 13 13 13 14 15 16 16 16 16 16 16 16 17 18 18 19 20 18 18 20 19 18 19 19 20 20 19 19 17 17 17 17 16 15 16 17 18 19 19 20 20 19 18 19 19 18 18 19 19 19 20 24 26 25 26 26 25 25 25 25 26 26 26 25 23 21 20
8 9 10 9 9 10 10 10 10 10 10 12 13 14 14 13 13 13 13 13 13 13 13 13 14 14 14 15 15 15 15 15 15 16 17 17 19 19 18 18 19 19 19 19 19 19 19 18 18 18 19 18 16 15 15 15 16 17 18 18 19 19 20 19 19 19 19 19 19 18 18 19 23 24 24 24 24 24 24 23 23 24 24 25 24 22 21 20
8 9 10 9 9 9 10 10 10 10 11 12 13 13 13 13 13 13 13 13 13 14 13 14 15 15 14 14 14 14 14 15 15 15 17 17 17 17 17 18 18 18 18 18 18 18 17 17 17 17 18 17 16 15 15 15 15 16 18 18 18 18 19 18 18 18 18 19 19 19 18 20 23 23 22 22 22 23 24 23 22 22 23 23 22 22 21 20
8 8 9 9 8 8 9 11 11 11 12 12 12 12 13 13 13 13 13 13 14 14 14 14 15 15 15 14 14 13 14 14 14 14 15 16 16 15 16 17 18 18 18 18 18 18 17 17 17 17 17 17 17 17 16 16 15 16 17 18 18 18 18 18 17 17 17 18 19 19 19 21 23 23 22 22 22 22 23 23 22 21 21 21 21 21 20 19
8 8 8 9 8 7 8 10 10 12 13 12 11 12 12 12 13 14 14 14 14 14 15 15 15 15 15 14 14 14 14 14 14 14 14 15 16 15 14 16 17 17 17 17 17 17 16 16 17 17 17 18 19 18 18 17 17 16 16 16 17 18 18 18 17 17 17 18 18 18 19 20 21 22 23 23 22 22 23 23 23 22 21 21 21 20 19 18
8 9 9 9 8 8 8 8 9 11 13 13 12 12 13 13 12 13 13 14 14 14 14 15 14 14 14 14 14 14 14 14 14 14 14 14 15 14 13 14 15 15 15 16 15 16 15 15 16 17 17 18 19 19 18 18 17 17 17 16 16 17 17 17 16 17 18 18 17 19 20 19 20 21 22 22 23 23 23 23 24 24 23 22 22 20 19 19
8 9 10 11 10 9 8 8 9 10 12 13 13 13 13 13 13 12 12 13 14 14 13 13 13 14 14 14 14 13 14 14 13 14 14 14 15 14 13 13 13 13 14 14 13 14 15 14 15 16 15 16 18 17 17 17 17 17 18 17 17 17 16 15 16 17 18 17 17 19 20 19 20 21 22 22 23 23 23 23 24 24 23 23 22 21 21 21
7 8 9 10 10 10 10 9 9 9 10 11 12 13 13 13 13 13 13 12 12 13 13 12 13 14 14 15 14 14 14 14 13 14 14 14 14 14 14 13 12 12 13 12 12 13 13 12 13 13 13 14 15 16 16 16 16 17 17 17 18 17 16 16 16 17 17 17 18 19 19 19 20 21 22 22 23 23 23 23 23 23 23 22 22 22 22 22
7 7 8 8 8 9 10 10 9 9 9 10 11 12 12 12 13 13 14 13 12 12 13 12 13 14 14 14 14 14 14 15 15 15 15 14 14 14 14 14 13 11 11 12 11 12 12 12 12 12 11 12 13 14 15 15 15 15 15 16 16 16 17 16 16 17 17 17 17 18 18 18 20 21 21 22 22 22 22 22 22 23 22 22 22 22 22 23
8 8 9 8 8 8 9 9 10 9 8 9 9 10 12 12 12 13 14 13 13 13 13 13 13 14 14 14 14 14 15 16 15 15 15 14 14 15 14 15 15 12 10 11 11 11 12 12 12 11 11 12 13 13 13 14 14 14 13 14 15 15 16 16 16 17 16 16 17 17 17 17 19 21 21 21 21 21 21 22 22 22 22 22 22 22 22 22
7 7 8 8 8 9 8 9 10 9 9 9 9 10 11 11 12 13 13 13 13 13 14 13 13 13 13 13 13 13 13 13 13 13 13 13 14 14 14 15 15 14 11 11 11 11 11 12 13 12 11 13 14 14 14 14 13 12 13 14 14 14 15 15 16 17 17 17 16 16 17 18 19 20 20 20 20 21 21 21 22 22 22 21 21 22 22 22
Height
789 789 789 789 789 788 788 788 788 787 788 788 788 788 789 790 790 791 791 792 793 793 794 794 794 795 794 794 794 794 794 793 794 793 792 792 793 793 793 794 794 794 794 794 794 794 792 792 792 793 793 794 796 797 800 799 798 801 805 812 813 809 808 805 804 805 804 805 809 811 809 811 814 816 816 817 819 818 819 819 818 819 819 821 823 825 825 827
789 789 789 789 788 788 788 787 787 787 787 787 787 788 788 789 790 790 791 791 792 793 793 793 794 794 794 794 794 794 793 793 793 792 792 793 793 793 793 793 794 794 794 794 794 792 792 791 791 792 792 795 798 798 801 800 800 803 805 811 809 803 802 800 799 800 803 806 806 808 809 809 811 812 814 819 818 817 820 818 817 819 819 820 823 824 826 826
788 788 788 788 788 788 787 786 786 786 786 786 787 787 788 789 789 790 790 791 791 792 792 793 793 793 793 794 793 794 794 794 793 793 793 793 793 793 793 794 793 794 793 793 793 792 791 790 791 791 792 796 798 799 801 801 802 803 805 811 806 800 801 801 801 803 806 807 806 808 810 810 809 809 814 818 816 816 819 816 815 818 817 818 821 822 825 826
788 788 788 788 788 787 787 786 786 786 786 786 787 787 788 788 789 790 790 791 791 792 792 792 792 793 793 793 794 794 793 795 794 792 792 793 793 793 794 794 793 794 793 793 793 792 792 791 791 791 794 798 799 799 801 802 804 803 805 809 805 801 804 805 805 806 808 808 807 809 812 813 810 810 813 816 818 817 813 809 809 811 809 812 818 820 823 825
787 788 788 787 787 787 786 786 785 786 786 786 787 787 788 788 789 790 790 790 791 791 791 792 792 792 793 793 793 793 795 799 795 791 793 793 793 794 793 794 794 793 793 793 793 793 792 791 791 793 795 798 801 801 801 802 803 805 805 807 807 804 807 809 808 810 811 810 810 811 814 813 810 813 813 814 818 814 808 804 803 805 805 808 815 818 821 822
787 787 788 787 786 786 786 786 785 786 786 786 787 787 788 788 788 789 789 790 790 791 791 791 791 792 792 792 793 793 796 799 794 791 793 792 793 794 793 794 794 794 793 794 793 793 792 791 793 796 796 798 801 802 802 802 803 806 806 806 808 807 809 811 810 814 813 811 812 812 812 811 813 814 811 813 813 807 804 804 804 806 807 809 812 816 818 820
786 787 787 786 786 786 785 785 786 786 786 786 786 787 787 788 788 788 788 789 789 790 790 791 791 791 792 792 793 793 793 795 792 792 793 793 794 794 794 794 794 794 794 793 793 792 792 792 794 796 797 800 801 802 803 803 803 806 807 807 810 810 811 812 813 815 814 813 813 812 813 813 815 814 811 812 809 803 804 805 806 808 809 810 812 814 816 817
785 786 786 786 785 785 785 785 786 786 786 786 786 787 787 787 787 787 788 788 789 789 790 790 791 791 792 792 792 792 792 792 792 793 793 793 794 794 794 794 794 794 794 793 792 791 792 793 794 794 798 801 799 802 804 804 805 805 806 808 810 811 812 813 814 815 815 814 814 814 815 813 813 814 815 811 805 802 803 804 807 809 810 811 811 812 814 815
785 785 785 785 785 785 785 785 785 785 786 786 786 786 786 786 786 787 787 788 788 789 789 789 790 790 791 791 791 792 792 791 792 793 793 794 794 794 794 794 794 794 794 794 792 791 793 793 793 793 797 800 798 802 804 806 808 804 805 808 810 812 812 813 814 814 815 814 814 816 814 813 813 816 813 805 801 801 801 804 806 807 809 809 810 810 811 812
784 784 785 785 784 784 785 785 785 785 785 786 786 786 786 786 786 786 787 787 788 788 788 789 790 790 791 791 791 793 792 790 792 793 793 794 794 795 795 795 795 794 794 793 793 792 792 792 792 791 794 798 800 804 805 807 808 805 806 808 810 812 812 813 813 814 815 814 815 816 814 812 814 818 812 801 800 802 802 804 804 806 807 806 807 808 808 809
783 783 784 784 784 784 784 784 784 784 785 785 785 785 785 786 786 786 786 787 787 788 788 788 789 790 790 790 790 792 791 791 792 793 794 794 794 795 795 795 794 795 794 793 794 793 793 792 791 792 796 798 801 806 807 808 808 806 807 809 811 812 812 813 813 814 815 815 816 815 814 812 815 818 808 801 802 803 803 804 803 805 805 804 804 805 806 807
782 783 783 783 783 783 783 784 784 784 785 785 785 785 785 786 786 786 786 787 787 787 788 788 789 790 790 789 789 791 791 792 792 793 794 794 795 795 795 795 795 795 794 794 795 794 794 793 792 796 799 797 802 808 809 808 807 807 808 810 812 811 812 812 811 814 814 816 815 814 817 812 812 811 799 799 803 802 804 803 802 803 802 802 802 803 804 805
781 782 782 783 783 782 783 783 783 784 784 784 785 785 785 786 786 786 786 787 787 787 788 788 789 789 789 790 791 792 792 792 793 794 794 795 796 796 796 796 795 795 795 794 795 795 795 795 794 797 798 798 805 809 807 807 808 809 809 809 812 813 813 809 810 814 814 817 814 816 822 809 798 798 794 798 801 801 804 802 800 800 799 800 800 801 802 803
781 781 782 782 782 782 782 783 783 783 784 784 784 785 785 786 786 786 786 787 787 787 788 788 789 789 789 790 792 793 792 793 794 794 795 795 796 797 797 797 796 796 795 795 796 796 796 796 796 797 799 801 805 808 807 809 810 810 812 812 812 815 815 810 811 814 814 817 813 817 826 810 793 793 796 799 800 801 803 799 798 797 796 797 797 799 799 799
781 781 781 782 782 782 782 782 783 783 783 784 784 785 785 785 786 786 787 787 787 788 788 788 789 789 788 791 793 792 793 794 794 795 795 796 797 798 798 798 798 797 797 797 797 797 797 797 797 800 805 804 805 809 810 811 810 810 817 818 813 815 815 813 813 813 815 817 814 819 824 809 796 796 799 801 801 802 802 798 797 796 795 795 795 796 796 796
780 781 781 781 782 782 782 782 783 783 783 784 784 785 785 785 786 786 787 787 787 788 788 789 789 788 789 791 793 792 793 794 794 795 795 796 797 798 799 799 799 799 799 799 798 799 798 798 802 804 806 807 807 807 810 815 815 812 815 816 815 816 812 813 816 814 814 817 815 818 819 807 797 796 799 801 801 802 801 798 796 795 794 794 794 794 794 794
779 780 781 781 782 782 782 782 782 783 783 784 784 784 785 786 786 786 787 787 788 788 788 788 788 788 790 791 793 792 792 793 794 795 796 797 797 798 799 799 800 800 799 799 799 799 798 801 807 807 805 807 805 805 816 824 819 814 815 813 813 813 810 812 817 817 815 817 817 816 817 810 800 794 795 797 798 800 799 796 794 792 791 791 791 791 791 791
779 780 781 781 781 782 782 782 783 783 783 784 784 785 786 786 786 787 787 788 788 788 790 789 789 792 794 792 791 791 791 793 794 795 797 797 798 799 799 799 799 799 800 801 800 800 801 803 806 807 808 809 806 808 819 822 813 810 814 815 813 813 813 811 814 817 816 817 817 815 815 810 801 795 793 792 793 795 795 793 791 790 789 788 788 788 788 788
778 779 780 781 781 781 782 783 783 783 783 784 785 785 786 787 787 787 788 788 787 788 790 787 787 792 792 788 788 791 792 793 795 796 797 798 799 799 799 799 799 800 802 804 804 803 804 807 810 813 812 810 808 807 810 809 806 806 809 812 811 811 812 809 812 818 816 817 817 814 811 805 800 796 791 788 787 789 790 789 789 788 787 787 786 785 784 784
778 779 779 780 781 781 782 783 783 783 784 784 785 786 786 786 787 788 788 787 785 785 786 783 782 786 788 787 789 792 793 795 796 796 798 798 799 800 799 800 801 802 804 805 807 806 807 812 814 812 808 804 803 803 804 806 807 809 811 813 812 813 811 806 814 821 818 818 813 806 806 802 798 795 789 787 785 785 785 786 786 785 784 784 783 782 780 779
777 779 779 780 781 781 782 782 783 783 783 784 785 785 782 781 784 785 785 786 785 785 786 784 784 786 787 788 790 791 792 795 796 796 799 798 798 801 801 801 804 806 805 806 808 808 811 815 810 803 801 800 802 804 807 809 810 812 814 815 815 815 812 809 817 821 819 822 812 802 805 800 795 793 787 785 784 782 781 781 782 780 779 779 777 777 775 774
777 778 778 780 780 781 782 782 783 783 783 784 784 782 779 779 780 781 781 783 785 786 787 787 786 787 788 790 790 790 790 794 798 797 798 799 799 801 801 802 805 805 806 808 810 813 816 813 804 800 802 804 807 808 809 811 813 815 816 818 818 814 811 814 821 821 820 822 813 805 809 800 791 790 785 782 781 776 773 774 774 774 775 774 772 771 771 771
777 777 779 780 780 782 782 782 783 782 783 784 783 782 780 780 780 780 780 780 783 787 787 787 786 787 789 791 790 791 790 791 796 797 797 799 799 800 800 802 802 804 808 808 809 815 816 810 803 803 805 807 812 812 812 814 816 817 817 819 819 814 814 819 822 823 821 820 814 813 817 805 789 784 778 774 773 769 767 768 769 770 771 770 768 768 768 768
776 777 779 779 781 782 782 783 783 783 784 783 783 782 781 781 781 781 780 780 783 786 786 786 786 786 788 789 790 790 790 789 791 795 796 797 798 800 799 799 801 805 807 804 805 809 810 810 809 807 807 807 814 817 816 817 816 815 817 818 815 812 815 819 820 821 817 817 819 819 818 803 784 780 774 766 768 769 767 768 768 768 768 767 766 766 765 765
775 777 778 779 782 782 782 784 783 783 783 783 783 781 782 782 781 782 781 783 786 785 787 787 787 786 785 788 790 789 790 790 791 793 794 796 797 799 800 798 801 805 803 803 806 805 807 812 812 811 812 810 814 817 815 816 815 813 814 814 811 810 815 820 822 823 819 819 822 823 821 804 780 777 776 768 769 770 767 767 767 765 763 764 765 764 763 762
774 776 777 779 781 781 784 783 782 784 782 782 782 781 783 782 782 783 781 788 790 785 787 787 785 786 784 787 790 789 792 793 793 794 795 797 796 797 801 801 803 804 800 802 807 806 809 815 812 812 816 816 818 817 812 814 815 815 817 816 812 813 819 823 823 826 823 820 821 824 828 817 794 782 776 770 770 767 764 764 762 760 760 759 759 759 759 759
773 775 777 779 780 781 783 782 782 782 781 782 780 781 784 781 783 782 784 801 797 778 781 787 784 784 783 786 787 789 796 794 793 797 796 797 797 796 801 802 805 806 801 805 813 809 810 817 817 815 816 818 820 815 811 813 814 818 824 824 817 817 823 824 825 827 824 821 821 821 826 829 814 790 774 770 771 766 763 762 758 756 756 754 754 755 756 757
772 774 775 778 779 780 781 781 781 781 780 780 779 782 783 781 785 781 790 811 795 769 775 784 783 783 784 787 786 789 794 791 793 799 797 798 799 798 800 799 800 803 801 807 814 809 808 816 817 815 818 817 815 813 811 811 815 823 829 824 819 821 823 823 825 825 824 829 827 821 826 829 812 785 770 770 771 768 763 759 755 751 751 752 753 755 756 757
772 774 774 777 778 779 780 780 781 780 779 779 779 782 781 784 785 780 797 808 782 766 775 780 783 786 786 789 789 790 792 791 795 798 798 800 799 799 801 799 795 800 803 804 808 810 813 817 815 812 815 813 813 820 818 812 816 825 827 822 822 825 823 825 828 825 828 834 827 820 824 823 803 775 769 776 774 769 761 754 751 748 750 753 754 756 757 757
773 774 774 776 778 779 780 780 780 779 780 780 780 782 782 785 784 789 811 802 771 772 781 780 784 785 785 790 791 791 791 794 797 797 800 800 799 800 800 799 797 801 808 808 809 814 817 819 817 814 814 812 816 825 827 822 821 823 823 821 824 825 825 828 826 827 835 832 820 816 814 818 807 773 759 769 766 760 755 750 749 749 751 754 755 755 756 757
774 774 775 776 777 778 779 780 779 779 781 781 781 783 783 786 787 795 805 786 767 779 784 782 785 783 784 786 789 792 792 795 797 797 801 801 802 803 802 804 804 808 814 813 812 816 817 819 817 816 817 814 817 824 828 827 825 823 820 821 827 829 830 832 829 836 842 829 821 821 813 817 813 777 756 761 757 753 754 751 750 751 752 753 754 754 754 756
773 773 774 775 775 777 778 779 778 779 782 781 783 784 782 792 797 792 785 774 773 779 776 780 785 782 783 781 784 791 791 795 796 794 797 800 802 801 800 800 802 811 818 812 813 818 816 813 812 817 820 816 815 821 829 830 827 824 820 822 831 833 835 837 834 836 835 826 827 829 823 821 803 769 757 760 755 752 752 749 750 751 752 752 751 752 752 755
772 773 774 774 775 777 777 778 778 780 782 783 786 784 782 795 798 782 772 771 773 773 770 777 782 780 782 783 786 790 790 793 795 793 793 795 798 798 795 791 789 799 803 801 810 818 815 812 813 818 819 815 811 814 826 829 826 823 818 822 830 831 837 839 832 828 826 826 833 831 827 822 796 765 756 755 751 750 748 748 751 751 753 753 750 751 752 753
772 773 774 774 775 775 776 778 778 780 784 785 788 787 789 797 789 774 771 768 769 773 773 776 782 782 782 784 786 787 790 795 793 793 795 796 799 798 794 791 788 789 793 797 802 808 813 811 807 809 809 809 809 804 806 812 819 817 807 811 818 818 823 827 823 821 820 825 836 837 828 812 789 768 755 751 750 750 750 751 751 751 752 754 752 752 752 752
772 773 773 773 774 774 776 778 779 782 784 786 791 792 790 790 783 775 771 767 769 776 776 775 781 785 785 788 789 785 789 794 793 795 797 795 796 793 789 788 787 787 793 800 797 796 804 800 794 799 799 800 805 800 795 803 816 815 806 811 815 806 805 815 823 823 823 828 831 832 820 791 770 758 749 752 752 749 752 751 750 750 750 751 752 751 750 750
773 773 773 773 773 773 775 778 779 781 781 786 797 795 781 776 775 773 767 763 767 773 778 780 782 785 786 788 792 790 788 791 794 797 797 793 791 787 783 779 780 783 786 792 791 791 800 800 800 805 801 799 804 801 797 803 810 812 813 815 810 802 801 813 828 830 833 835 817 811 807 785 771 759 744 746 749 746 749 747 745 747 746 749 750 747 746 747
773 773 773 773 773 773 775 777 779 781 781 786 795 791 782 776 772 770 766 764 764 766 773 780 779 780 782 784 788 790 789 789 795 796 794 795 790 782 781 776 773 776 777 779 784 784 790 800 807 809 805 806 809 805 803 805 805 810 816 810 802 807 809 811 825 828 831 831 811 799 799 791 788 772 744 742 749 747 747 744 743 743 743 745 744 742 743 744
772 773 772 771 773 773 774 777 779 781 782 787 789 788 789 784 772 769 770 767 764 764 769 773 772 771 774 777 780 784 787 787 793 794 789 792 786 771 775 779 773 773 773 775 783 782 784 796 809 815 812 809 810 809 808 809 807 808 810 803 804 816 817 813 824 827 826 826 812 800 794 789 787 770 750 749 750 747 745 743 742 742 740 741 739 739 741 743
772 772 770 768 770 772 774 777 779 781 784 788 789 786 787 784 776 773 773 770 767 766 767 766 766 768 769 768 769 776 784 782 785 790 785 785 782 766 766 773 773 774 773 775 782 783 785 793 805 817 816 809 811 811 808 809 811 811 810 805 806 812 810 807 811 813 816 819 813 804 796 784 770 756 750 750 745 743 744 741 741 741 738 738 737 737 740 743
772 772 768 766 768 771 773 776 778 782 783 784 784 781 778 778 776 774 774 774 772 770 768 764 762 767 769 767 766 770 778 776 776 783 779 776 777 769 764 766 771 774 773 775 779 781 787 791 797 813 819 812 809 804 797 799 805 812 813 811 810 810 809 810 805 800 805 812 809 806 799 777 752 741 743 742 739 739 740 740 740 739 737 737 736 737 739 741
772 772 767 764 768 769 772 777 779 780 778 774 774 774 772 771 771 772 774 775 775 774 774 771 768 769 770 772 771 770 775 776 773 776 775 771 771 771 768 764 767 773 775 779 781 780 785 789 792 808 815 807 797 791 790 791 792 797 801 801 801 802 808 817 813 801 802 806 803 803 802 775 743 735 738 736 737 738 737 740 740 738 738 737 736 737 739 739
772 772 766 764 767 767 771 776 776 776 774 769 766 765 766 767 767 770 773 775 776 776 777 777 775 774 772 773 773 773 777 779 777 775 773 770 766 766 768 766 765 769 774 779 779 775 778 784 789 796 798 794 792 792 796 796 791 791 791 789 789 792 799 808 809 803 805 807 801 803 806 777 739 733 738 736 737 738 739 742 742 739 738 736 736 738 739 740
772 769 764 764 766 766 771 775 774 774 771 764 761 761 763 766 767 768 770 773 775 775 777 778 776 776 776 775 776 778 778 780 781 777 772 771 767 764 767 768 767 769 772 776 777 775 779 786 790 790 786 787 793 795 796 797 796 795 792 790 790 789 789 793 796 797 800 803 800 804 807 779 740 732 739 738 739 741 741 742 743 742 739 737 738 739 739 740
770 768 765 766 766 766 769 768 768 769 766 762 763 763 762 763 764 766 769 769 769 770 773 774 772 772 774 774 777 780 779 780 781 777 772 771 770 768 768 768 770 771 772 774 775 777 785 788 790 794 793 793 798 799 799 800 801 797 791 790 791 789 789 794 797 799 799 796 793 796 796 771 740 734 740 741 742 742 740 741 742 742 741 739 739 739 740 741
770 771 768 766 766 767 766 760 758 760 760 761 765 764 763 762 761 762 764 765 764 764 767 768 767 767 770 773 777 779 778 779 780 779 777 774 772 772 771 769 770 770 771 773 772 775 784 785 785 793 795 792 793 792 791 791 795 796 791 788 787 788 792 795 798 804 802 793 787 788 784 764 740 736 741 742 743 743 740 740 741 741 741 741 740 740 741 742
769 768 767 767 767 768 766 760 758 756 753 758 764 762 760 762 761 759 760 761 762 762 762 763 764 766 768 770 774 776 776 777 778 779 780 776 773 775 775 772 772 772 773 775 775 777 784 785 781 782 782 777 774 775 775 777 785 791 789 787 787 786 788 792 797 799 795 790 786 779 775 767 750 741 740 739 741 744 742 740 739 738 738 739 740 740 741 743
766 762 759 760 764 767 767 763 761 756 750 752 757 756 756 758 760 762 761 760 761 761 761 761 764 767 769 770 773 773 772 774 777 777 777 775 773 776 780 778 776 778 778 778 779 781 787 788 781 779 778 770 767 770 773 776 780 783 784 786 787 787 788 794 796 789 784 788 785 769 766 769 758 744 739 739 741 742 740 738 737 736 735 734 736 738 739 740
763 757 751 751 754 758 760 759 757 755 752 750 749 749 752 754 757 761 763 761 759 760 763 765 765 765 764 765 770 772 770 772 775 773 772 773 773 776 780 780 780 782 781 784 787 786 788 790 785 782 783 777 772 774 775 776 777 778 779 781 783 785 790 793 791 782 778 782 778 765 763 765 755 742 736 737 740 739 736 735 734 733 733 732 732 735 736 737
760 756 753 751 749 747 748 750 753 756 755 753 750 747 749 751 752 753 757 760 762 761 762 764 762 761 761 760 764 767 767 768 771 770 770 773 774 776 779 780 783 786 784 787 791 789 791 795 792 790 792 787 781 780 778 779 780 779 779 778 778 781 783 784 781 776 774 775 771 765 764 758 747 739 734 733 736 735 733 733 732 731 731 731 731 732 733 732
756 755 753 754 752 748 746 748 752 757 757 756 755 750 747 748 748 747 749 755 761 760 759 760 758 757 759 759 760 763 761 760 764 764 766 771 773 774 775 775 779 787 789 789 791 791 793 794 793 797 801 795 788 785 783 783 783 782 782 781 780 779 776 774 773 772 775 776 769 766 767 755 738 734 736 733 731 733 733 731 730 729 728 728 728 729 729 728
751 751 751 753 753 750 749 747 748 754 757 757 756 751 748 747 745 745 746 748 752 754 755 756 756 755 757 759 759 759 757 757 759 760 761 766 767 767 769 767 770 781 789 790 790 792 794 791 791 800 803 792 784 784 784 782 784 787 787 783 780 777 772 770 770 771 772 771 768 769 770 755 734 731 738 734 728 732 732 727 726 726 724 725 726 725 725 724
751 752 751 752 750 747 748 749 746 749 751 752 750 747 746 746 744 746 748 748 748 750 750 751 754 755 756 758 759 759 759 760 763 763 764 766 765 764 766 765 765 773 783 787 787 788 791 789 787 793 796 785 776 777 779 781 787 788 780 772 770 769 769 769 769 765 760 760 765 766 759 747 735 733 736 732 728 729 728 724 723 722 721 723 723 721 720 718
Wind_Speed
8 7 6 5 5 4 5 6 7 7 8 8 7 7 7 7 7 7 7 8 8 7 7 6 6 5 4 3 3 3 4 5 6 7 5 3 4 6 6 4 3 3 4 4 5 5 4 5 5 5 5 4 1 1 2 1 1 3 4 5 5 4 2 2 3 2 1 2 7 10 10 9 7 7 5 2 5 6 4 6 5 3 3 3 7 7 8 11
8 7 7 5 5 4 4 5 7 8 8 8 8 8 8 8 7 8 8 8 8 8 7 6 6 6 4 4 3 3 5 5 7 5 3 5 6 6 5 3 3 3 4 3 5 7 5 5 6 6 5 3 1 1 3 0 1 4 3 5 5 2 2 2 1 1 2 2 5 9 9 7 4 6 7 5 8 8 8 8 8 7 7 7 8 8 10 11
8 7 7 6 5 4 4 5 7 8 9 9 9 9 9 9 9 9 9 9 9 9 8 7 7 6 5 4 3 4 6 6 7 4 4 7 7 6 5 3 2 3 4 2 4 6 4 3 6 6 4 3 2 2 4 1 1 2 2 6 2 2 4 4 3 4 5 4 2 7 7 6 2 4 6 6 8 8 9 8 8 10 10 11 10 10 12 12
8 8 7 6 5 4 4 5 7 8 9 9 9 9 9 9 10 10 10 10 10 9 9 8 7 6 5 4 4 6 6 6 5 4 5 8 7 6 4 3 2 2 3 2 3 4 3 4 6 6 4 3 3 3 5 2 1 1 2 4 2 2 1 4 4 5 6 5 1 5 5 6 3 2 4 6 8 7 8 9 9 9 8 12 12 12 13 13
8 8 8 7 5 5 4 4 5 7 7 8 8 8 9 9 10 10 11 10 10 10 9 8 7 6 5 4 5 5 5 5 3 4 6 8 7 6 4 3 3 2 3 3 2 3 4 6 6 5 4 4 5 5 4 3 0 2 2 2 5 3 1 4 3 4 4 3 1 4 4 4 3 2 6 8 9 4 1 2 4 2 1 10 14 12 13 13
10 9 9 7 6 5 4 3 3 4 5 6 7 8 8 9 9 10 10 10 10 10 9 9 7 6 5 4 5 5 4 2 2 3 7 8 7 6 4 4 3 3 3 2 3 4 5 7 7 5 4 4 6 5 3 4 1 2 2 3 3 3 3 3 3 3 2 1 1 2 2 2 2 6 6 9 13 4 6 7 5 6 6 8 13 13 13 13
11 10 9 8 7 5 4 4 3 3 4 5 6 8 8 8 8 10 10 10 10 9 9 8 7 6 5 4 3 5 6 0 3 3 8 8 7 6 4 4 2 3 2 3 5 6 6 8 7 5 4 3 5 4 4 4 3 4 2 5 3 4 3 2 3 2 0 0 1 2 1 2 6 6 1 7 14 9 2 7 6 6 6 5 10 12 12 14
11 11 10 8 7 6 5 4 3 4 4 5 6 7 8 7 8 9 10 10 10 10 9 8 8 6 6 5 3 5 5 2 3 5 7 7 6 4 3 3 2 2 1 2 3 4 6 7 6 5 5 2 3 5 4 5 5 5 2 5 3 3 4 3 3 2 2 1 1 1 4 4 4 2 3 10 14 11 5 6 5 4 5 5 8 10 11 12
12 12 10 9 8 7 6 5 4 4 4 3 4 6 6 7 8 9 10 10 10 10 9 8 7 6 7 5 5 5 3 3 5 7 7 6 4 3 3 2 1 1 1 0 2 3 4 5 5 4 2 3 3 5 4 4 3 1 3 6 4 4 4 3 3 3 2 1 1 3 6 3 1 3 7 15 12 6 4 5 5 5 6 7 8 10 11 12
13 12 10 9 8 7 6 5 4 4 4 3 3 4 5 6 7 8 9 9 9 9 9 8 7 6 6 5 6 5 2 4 7 7 7 6 4 3 1 1 2 1 1 1 1 2 3 2 3 1 1 4 3 3 1 2 0 3 6 6 5 5 4 2 2 4 2 1 2 5 5 2 3 2 8 6 2 1 3 7 7 7 9 9 9 9 11 12
12 11 11 9 8 7 6 5 3 2 3 2 2 3 4 5 7 8 8 9 9 8 8 7 7 6 4 6 7 3 3 4 7 7 7 6 4 2 1 2 3 1 1 2 1 2 3 1 4 1 0 4 5 4 2 1 1 4 6 6 5 4 4 4 3 4 2 2 1 4 5 5 4 5 11 3 4 2 4 7 8 8 9 9 10 9 9 10
11 10 10 9 8 7 5 4 2 2 2 3 3 3 4 5 6 7 8 9 8 8 8 7 7 5 3 6 4 1 3 4 7 8 7 6 4 3 2 2 3 1 1 1 3 3 3 3 0 1 2 5 6 5 3 2 1 4 4 4 6 5 5 6 4 3 2 1 1 2 6 9 9 13 15 6 6 4 4 7 7 8 8 8 9 8 8 9
10 10 9 8 7 6 5 4 3 3 3 4 4 4 5 6 6 7 8 9 8 8 8 7 7 5 4 4 1 3 4 6 8 8 7 7 5 4 4 3 3 2 1 3 5 4 4 3 3 1 3 1 3 3 4 4 2 5 4 3 4 5 5 6 4 2 3 2 2 2 5 7 9 15 11 6 6 5 6 9 9 8 8 8 8 7 8 9
10 9 9 8 7 6 4 3 3 3 3 4 4 4 6 6 7 8 8 8 8 8 7 6 6 5 4 1 3 2 5 7 7 6 8 8 6 6 6 5 6 6 6 8 8 5 6 3 0 4 3 3 4 3 5 5 3 4 3 3 3 5 3 6 4 4 4 2 3 3 5 7 5 4 6 5 4 5 8 10 9 9 8 8 7 8 8 9
10 9 9 8 7 6 4 3 3 2 3 3 3 4 5 7 7 8 9 8 7 7 5 5 5 3 3 2 2 2 5 6 5 5 9 10 6 5 6 7 10 11 11 12 10 8 7 2 2 5 3 2 4 5 5 5 4 3 3 4 4 4 3 6 3 3 3 2 5 6 4 8 6 3 6 2 2 5 9 10 8 9 9 8 7 8 8 8
10 9 8 8 6 5 4 3 3 2 3 3 3 4 5 6 7 8 8 7 6 6 4 3 4 3 3 3 3 2 4 4 5 6 9 9 5 5 8 9 9 9 9 10 9 8 4 2 1 1 2 3 5 5 4 4 4 4 5 4 4 5 4 5 3 2 1 3 7 9 6 6 3 4 6 4 3 5 7 8 8 8 9 9 7 7 7 7
9 8 8 7 7 6 5 4 3 3 2 2 3 3 4 5 6 7 7 6 5 5 3 1 2 3 2 3 2 3 4 3 5 6 8 7 5 7 8 6 5 5 6 6 5 3 1 2 1 1 2 4 4 4 4 5 5 5 5 4 3 5 4 2 4 3 2 3 6 9 9 11 10 6 4 7 7 7 8 10 11 10 10 9 8 7 8 8
9 8 7 7 6 6 5 4 3 2 2 3 3 4 5 6 7 6 5 7 6 5 1 1 1 3 2 4 3 4 6 5 6 6 6 6 7 7 3 2 5 6 7 5 2 2 1 1 2 2 4 4 4 5 6 3 3 5 5 5 4 5 6 4 2 4 4 4 6 9 10 13 15 15 12 10 10 11 12 13 13 12 12 11 10 9 9 9
10 8 6 6 5 5 5 4 3 2 2 3 5 8 9 7 7 4 3 4 4 3 1 3 6 3 2 6 5 6 7 7 7 5 4 6 7 6 2 4 5 4 5 4 3 2 1 3 3 3 5 6 7 8 5 1 3 1 1 3 4 3 4 3 3 3 1 4 7 11 12 13 15 15 14 14 12 12 13 13 11 11 11 11 11 11 11 11
10 8 6 4 3 4 5 4 2 2 3 5 7 7 6 6 5 4 4 4 3 1 3 1 4 2 4 6 7 8 9 7 4 3 5 8 7 6 5 4 4 3 4 3 3 2 2 3 5 6 6 7 8 5 0 3 4 3 2 2 4 3 2 3 5 4 0 4 7 10 12 15 14 14 15 14 14 15 15 14 13 12 11 11 12 13 13 13
10 8 6 4 4 5 5 2 2 2 4 8 7 4 3 5 4 4 5 4 0 3 4 3 3 3 4 6 8 9 6 3 2 3 7 8 6 5 6 5 6 5 3 2 3 2 2 5 7 5 2 2 3 2 1 1 2 3 3 3 3 4 2 3 5 2 1 2 6 8 11 15 14 13 14 14 15 16 16 15 15 15 13 11 12 15 13 12
11 10 8 6 4 4 3 1 1 2 5 8 7 5 3 2 1 3 3 4 2 1 1 2 2 3 5 4 7 5 2 4 5 5 7 7 6 5 6 7 8 6 5 4 3 3 4 7 5 3 5 5 4 2 3 4 4 3 3 4 3 2 1 3 4 2 2 2 6 7 10 14 15 14 15 16 16 16 15 15 15 14 13 12 13 14 12 10
13 12 10 8 5 4 2 2 2 2 4 6 7 6 5 4 1 3 1 3 3 2 2 2 3 5 5 2 5 5 4 6 7 8 8 8 7 4 5 9 9 5 7 8 6 5 5 4 2 5 5 4 3 3 5 4 4 5 4 4 3 1 1 1 2 1 3 4 7 8 8 12 15 15 15 16 16 16 14 13 13 12 12 14 13 11 11 11
15 13 12 10 7 5 4 4 3 2 5 7 9 8 5 3 2 1 2 2 2 2 2 1 1 4 5 3 6 8 4 2 3 8 10 9 6 3 5 8 8 6 6 9 9 8 4 2 2 3 4 5 4 5 6 5 5 6 6 6 4 1 1 1 2 2 5 6 5 7 7 9 11 11 11 8 7 10 11 10 11 11 12 13 12 11 11 12
15 14 14 12 9 8 6 5 3 3 5 6 10 12 8 5 2 1 1 2 3 3 1 2 2 4 5 5 6 6 1 1 1 4 9 8 4 4 3 2 4 8 9 9 9 9 3 4 3 5 4 5 5 5 7 6 5 6 7 8 8 5 2 2 3 4 5 3 2 3 6 5 5 8 9 5 4 7 8 10 11 11 11 11 10 10 11 11
17 15 14 13 12 11 7 3 2 3 4 3 9 13 10 6 3 0 1 3 4 3 4 5 5 6 8 6 6 4 1 4 2 4 6 3 2 1 3 2 1 4 6 6 5 4 2 3 3 5 6 5 5 5 7 7 6 4 3 3 6 5 2 2 3 2 4 3 1 1 5 6 6 11 13 11 11 13 10 11 12 10 10 10 9 9 9 8
18 17 16 15 15 14 6 1 4 4 2 3 8 13 10 7 3 0 2 4 5 5 6 3 2 6 8 5 7 6 3 4 6 3 3 1 0 0 2 6 4 2 3 4 3 2 5 6 4 5 6 6 5 5 6 8 7 2 1 3 0 2 2 2 3 3 3 5 3 5 4 7 7 11 14 13 14 15 12 12 12 11 11 11 9 7 7 6
12 16 18 17 18 17 6 1 4 4 2 3 8 13 10 6 3 0 3 5 3 5 4 2 2 4 6 3 5 4 1 5 6 3 3 2 1 1 4 7 7 7 7 5 5 1 4 7 8 9 7 6 5 0 4 10 6 1 2 3 4 3 1 1 2 4 2 5 5 6 5 6 7 7 9 9 11 13 12 11 12 10 9 7 4 3 3 2
6 11 17 20 19 19 12 4 4 5 5 4 8 12 9 5 3 1 3 5 2 3 1 3 4 4 6 6 5 3 3 2 0 2 4 1 1 1 3 4 5 7 7 6 4 2 2 2 4 7 7 5 3 5 3 5 3 3 4 5 6 4 3 1 2 3 2 5 6 6 9 6 8 6 7 5 6 10 10 9 8 4 3 3 2 2 2 2
6 6 13 19 19 19 15 7 8 7 4 4 8 11 8 4 4 5 5 4 3 3 2 2 3 6 11 10 7 5 4 2 3 5 5 3 3 1 1 1 2 3 4 4 3 2 3 2 1 3 2 1 5 7 5 3 4 7 7 5 4 3 2 0 2 1 3 7 4 6 11 6 7 4 7 4 3 5 7 5 3 4 6 5 4 3 3 3
8 6 10 18 21 20 13 6 11 11 4 3 9 9 6 2 2 7 6 1 0 3 4 4 4 8 14 14 8 6 5 3 6 9 6 4 5 4 4 3 1 2 3 5 4 3 3 2 1 1 0 2 6 6 5 4 3 5 4 4 3 2 2 2 2 2 5 6 0 2 4 5 7 4 4 2 2 2 3 3 2 3 4 5 5 5 4 3
8 7 10 18 22 22 15 5 9 11 4 5 7 4 4 3 2 7 5 3 1 5 7 6 6 10 14 13 7 7 8 5 7 9 7 7 7 7 9 8 6 5 5 7 5 2 3 5 4 3 0 4 6 5 4 2 2 4 4 6 4 3 3 5 5 4 6 4 2 2 1 4 11 9 3 3 4 4 5 5 6 6 6 6 4 5 5 4
8 7 9 19 22 22 20 11 6 9 7 6 2 2 3 5 5 8 8 5 1 2 5 6 7 10 14 11 7 8 7 5 8 8 7 9 8 8 11 11 11 9 6 7 6 3 3 3 5 5 1 5 8 6 5 4 5 7 8 7 6 5 5 7 6 5 5 2 2 1 0 4 10 9 7 10 10 8 7 6 7 7 8 8 5 3 3 4
8 7 6 15 23 23 22 17 9 9 10 7 1 2 5 6 6 8 10 6 2 3 4 7 9 10 11 7 5 9 5 3 9 8 6 9 7 8 10 12 14 10 4 5 6 7 7 4 7 10 5 8 11 8 6 7 8 10 8 7 7 6 7 7 5 5 5 1 1 2 2 5 6 3 2 4 5 5 5 5 5 7 6 5 5 5 5 5
6 8 4 8 18 22 21 18 13 12 12 8 2 3 9 8 6 7 9 5 4 4 5 8 10 9 9 4 2 6 4 2 8 7 6 9 8 8 10 10 14 12 7 7 4 7 9 6 7 7 5 14 14 7 6 7 7 7 5 6 8 5 6 5 1 1 1 2 2 4 4 6 5 7 9 8 8 7 7 6 6 6 4 3 4 6 6 5
3 6 6 6 10 17 21 18 16 16 13 8 2 6 8 6 3 5 5 4 5 7 9 8 8 7 8 5 3 6 2 1 7 7 5 8 8 9 10 9 13 15 11 8 4 5 7 3 5 4 4 11 8 2 4 3 3 5 5 6 3 2 3 4 1 3 1 5 5 5 6 8 8 13 13 13 14 13 11 11 9 7 4 4 4 6 5 4
2 4 7 8 7 10 17 18 17 18 11 5 5 6 4 2 1 2 2 2 5 10 10 7 7 7 9 6 5 9 6 3 7 7 5 7 6 9 12 9 11 16 16 11 5 4 5 2 2 3 4 5 1 2 1 2 1 3 5 5 2 4 2 3 4 2 3 8 6 6 11 10 7 9 4 5 8 8 8 9 8 8 7 6 7 6 4 4
3 4 5 9 10 8 14 20 18 14 6 3 6 6 2 2 2 0 1 1 4 10 10 8 7 8 9 9 8 11 10 6 8 8 6 6 5 9 14 9 8 14 16 13 6 2 4 4 1 0 1 3 3 1 3 1 1 1 1 1 1 2 4 5 5 5 6 8 6 8 13 10 9 11 7 6 9 8 7 8 8 9 9 7 8 5 4 6
2 3 3 9 13 10 15 22 16 7 2 3 5 6 5 4 3 1 1 2 2 7 10 11 10 8 8 10 9 12 12 9 10 9 7 7 5 7 12 9 7 11 15 14 8 2 3 6 3 1 1 3 5 5 7 5 3 1 3 2 1 2 4 5 5 5 6 8 7 8 10 8 9 11 12 15 15 13 11 9 8 9 9 8 6 2 3 5
2 2 1 9 14 13 17 19 11 5 4 3 4 4 5 5 5 5 3 2 2 2 5 9 11 9 7 6 6 9 11 10 11 9 7 9 7 4 8 9 7 8 13 15 11 5 4 5 5 1 0 3 5 8 10 9 8 5 5 6 5 3 1 2 4 5 6 7 7 8 8 8 8 7 11 13 12 10 9 6 5 5 7 7 4 2 1 2
3 3 1 10 15 17 18 12 5 6 6 5 6 7 5 4 6 8 6 2 1 1 1 2 4 4 4 4 4 6 7 8 9 8 7 9 9 5 4 5 6 8 10 11 11 8 6 6 6 4 4 7 6 5 6 7 8 9 9 9 10 8 5 4 7 5 4 4 5 6 7 9 9 6 7 10 9 7 5 5 5 5 6 7 2 1 1 2
4 4 1 8 18 20 15 5 3 5 6 6 7 8 6 3 5 9 9 5 2 1 1 2 3 2 2 2 2 3 5 5 6 7 6 8 10 7 2 1 5 10 8 6 8 8 4 4 7 6 5 6 3 3 2 1 2 5 7 8 9 9 8 8 8 4 3 3 2 4 6 10 12 7 5 7 5 3 3 3 4 6 6 5 2 1 2 2
5 4 2 6 20 21 11 5 5 5 6 7 6 8 7 5 6 8 9 9 7 4 4 4 5 6 4 2 1 2 2 2 4 7 7 7 8 4 4 5 6 9 8 4 5 5 2 3 7 7 5 3 4 4 3 2 1 5 6 4 5 7 8 7 4 1 3 5 4 6 8 11 12 5 2 2 1 1 1 2 4 5 4 4 4 3 3 3
4 4 1 4 17 18 10 7 8 8 10 8 7 8 8 7 8 8 9 10 9 7 7 7 9 8 5 3 3 3 4 4 5 8 8 7 4 1 4 7 6 7 6 2 2 5 4 4 6 6 6 5 4 4 3 2 3 5 7 6 7 8 7 2 0 1 4 7 9 9 8 10 9 1 3 1 2 3 5 4 3 4 4 5 5 4 3 3
4 4 2 4 8 8 6 5 6 9 13 12 10 11 11 8 8 10 10 11 10 9 8 8 8 8 6 6 5 3 5 6 5 5 6 6 2 2 1 5 7 7 5 1 2 5 5 4 6 7 8 8 7 4 3 4 5 4 7 11 13 14 12 6 2 4 8 9 11 10 9 12 15 9 4 4 4 5 6 4 4 5 5 6 5 4 3 3
5 4 4 4 2 2 3 3 4 7 12 13 10 10 14 11 7 9 11 10 10 10 9 7 8 9 9 9 7 6 8 8 5 3 4 6 3 2 1 2 4 4 2 4 3 3 2 2 6 10 11 10 8 2 3 5 7 7 10 13 13 14 15 10 5 7 10 10 11 13 12 16 21 21 17 11 6 5 6 8 8 6 4 4 4 3 2 2
6 5 5 7 4 4 5 5 7 8 10 13 9 8 15 15 9 8 10 9 9 10 9 8 9 10 11 12 11 10 11 11 8 8 8 7 4 2 3 2 1 2 4 3 2 2 2 4 9 12 13 14 13 6 2 3 5 8 10 11 12 12 12 10 10 12 12 10 11 14 14 17 21 23 23 19 12 10 10 11 11 9 5 3 2 2 3 4
6 5 5 6 5 7 8 7 12 14 12 12 11 10 15 17 14 10 9 9 10 11 9 9 13 15 14 13 11 10 11 12 12 13 12 9 7 4 2 2 1 2 4 2 4 2 2 4 7 8 11 14 15 11 7 7 8 8 9 10 11 13 13 13 15 18 16 12 12 14 15 17 19 23 24 19 14 16 16 14 13 12 7 4 3 3 4 6
6 4 4 4 4 7 7 5 10 16 15 12 11 13 15 17 18 14 10 9 10 12 12 11 14 17 17 16 12 10 12 11 10 10 9 7 7 7 5 2 1 2 3 3 1 1 2 3 5 6 8 13 15 14 12 13 13 12 12 12 10 11 15 17 18 20 20 17 16 18 21 22 21 23 24 20 16 17 17 15 15 14 9 6 6 6 6 8
7 5 4 3 4 5 4 4 9 12 13 11 10 12 14 17 19 16 13 12 10 11 14 15 17 17 17 17 15 13 14 12 10 10 9 8 8 7 6 5 3 1 2 4 2 2 3 4 5 3 4 10 14 15 14 13 12 13 12 11 11 14 16 18 17 16 15 16 19 21 22 21 20 20 20 21 19 16 16 18 18 16 12 10 11 11 11 14
12 6 3 3 4 6 4 6 10 10 9 9 9 10 13 17 17 14 13 13 13 12 13 16 17 14 14 16 18 17 16 13 11 9 6 7 7 6 6 6 7 5 3 4 3 3 4 4 4 4 4 8 12 14 15 13 12 11 12 13 15 17 16 15 13 12 13 16 19 18 16 16 18 17 15 19 21 17 19 20 17 15 15 14 14 14 16 17
14 6 4 4 5 7 5 5 9 11 8 9 10 11 14 16 15 12 10 9 12 13 12 15 16 12 11 16 16 13 8 4 5 5 4 4 6 5 5 6 7 6 5 5 4 4 6 5 4 6 6 9 13 14 12 10 8 8 11 16 19 18 16 14 12 15 20 18 14 13 13 14 17 17 16 20 21 19 18 17 14 14 15 15 15 16 17 18
Wind_Direction
208 209 211 214 212 204 191 188 185 182 183 186 190 192 193 194 194 198 198 201 199 198 205 209 218 226 230 221 217 222 186 172 179 195 208 171 146 158 159 159 174 180 185 181 186 203 202 187 166 175 181 158 189 138 151 356 11 236 216 225 234 225 209 166 197 184 11 87 138 160 174 190 176 165 168 145 221 229 210 207 194 181 202 118 103 120 132 140
212 208 213 215 209 202 199 201 191 186 189 191 195 197 199 198 198 200 199 203 201 199 203 207 221 226 230 218 212 214 181 183 205 196 178 172 164 159 153 159 174 179 178 184 209 212 208 178 164 190 193 166 183 169 185 150 258 235 225 230 239 234 79 59 307 75 38 0 135 157 182 199 181 158 161 198 214 204 223 220 199 209 199 159 137 141 145 152
214 207 213 209 205 205 211 216 201 193 195 197 199 200 201 201 200 199 200 203 201 200 201 208 220 225 229 213 210 201 177 204 213 169 160 181 169 157 156 160 160 173 183 213 242 234 246 185 172 199 197 175 161 177 193 161 237 240 248 236 239 57 78 58 19 64 58 13 132 158 175 198 175 136 158 214 231 205 226 230 203 213 209 185 165 156 158 163
213 209 207 206 210 213 221 227 212 202 201 204 204 202 202 201 201 200 200 201 201 201 201 209 216 222 222 209 216 195 185 218 199 133 167 179 163 156 151 143 147 167 179 198 230 237 247 185 182 207 205 183 139 180 191 133 227 189 232 255 24 18 85 70 53 63 55 20 7 137 156 199 174 131 184 222 240 223 232 235 218 227 215 181 167 164 168 173
210 209 206 211 216 218 227 235 222 208 205 210 208 205 203 201 201 199 200 200 201 201 201 209 214 218 212 210 216 192 203 223 146 110 165 167 154 148 137 125 127 120 142 172 192 200 205 185 184 200 210 185 156 188 178 112 306 200 206 358 29 333 11 70 63 56 43 25 83 137 157 184 138 194 224 229 238 231 282 261 212 247 117 151 161 169 173 181
206 208 209 216 220 219 225 229 224 208 205 212 209 205 202 201 201 199 201 200 200 201 203 208 211 213 204 211 211 198 230 229 90 130 154 152 144 133 123 113 100 98 131 192 201 197 198 190 189 192 205 185 175 188 138 125 247 241 181 91 49 5 37 68 63 53 13 1 123 134 102 89 191 231 227 231 242 246 56 50 62 65 78 136 159 168 176 187
205 210 214 218 216 213 220 215 212 208 207 213 209 207 205 204 203 201 200 198 200 201 202 207 208 209 199 192 189 211 237 143 83 164 147 146 139 119 104 98 93 94 131 224 203 198 198 198 200 195 195 176 182 174 117 145 212 261 195 119 88 38 52 51 58 79 93 268 35 33 348 244 231 240 235 237 245 249 108 87 80 85 99 143 164 173 186 193
209 213 217 218 214 207 213 217 220 213 208 219 212 206 208 207 203 201 201 198 198 198 202 205 203 206 194 187 201 216 218 103 119 169 148 149 138 114 93 75 73 91 179 244 222 213 203 205 200 195 196 157 165 153 142 172 197 249 188 121 120 78 82 74 85 122 134 225 1 290 247 237 238 293 296 254 249 250 218 140 131 133 135 170 185 189 194 198
213 215 220 220 216 209 217 224 223 207 197 221 215 204 205 204 201 201 201 199 197 197 198 201 202 205 192 201 247 222 175 106 158 168 154 154 136 109 87 64 104 144 189 203 291 240 209 211 192 201 193 109 149 146 164 207 193 215 130 126 132 112 98 102 122 118 130 200 147 227 236 207 167 333 272 253 251 245 205 186 190 191 197 205 201 203 202 202
213 216 220 221 218 212 219 221 214 196 184 205 209 199 198 196 198 197 199 198 196 195 196 200 199 193 190 213 237 217 100 113 160 162 157 154 130 99 78 162 149 217 220 107 301 259 252 244 138 179 37 108 152 133 151 252 34 105 123 120 121 123 119 139 143 123 152 140 151 246 254 190 141 251 252 244 260 156 201 230 220 213 225 225 215 211 209 209
212 217 214 217 217 208 211 210 198 177 180 201 200 192 188 187 189 190 195 193 191 193 195 199 192 182 203 233 233 209 87 119 155 159 157 152 134 118 200 170 128 207 226 103 47 354 326 16 109 176 200 139 144 107 82 32 61 128 137 130 125 138 143 171 166 140 191 141 147 279 286 252 155 217 245 201 96 151 210 234 221 223 232 230 226 216 210 214
210 215 209 213 212 204 208 209 205 204 209 208 182 174 183 183 184 186 186 184 185 190 191 193 189 180 211 240 243 109 104 128 151 156 154 144 130 131 154 149 135 171 272 113 84 45 56 73 144 231 89 155 150 118 116 123 142 144 175 176 149 180 183 177 161 132 231 149 106 305 283 253 205 223 240 186 146 173 210 240 230 232 236 229 226 216 211 215
212 210 206 212 211 203 206 216 225 223 219 208 185 176 184 181 182 182 179 181 183 185 187 188 184 184 220 225 115 92 120 133 144 149 151 141 121 109 109 111 126 143 193 121 108 105 104 52 310 41 66 187 136 109 133 133 170 158 203 246 164 204 200 169 151 138 216 130 107 268 271 258 219 220 221 149 161 197 228 247 243 240 239 231 222 214 216 212
211 207 204 211 214 205 202 217 228 225 223 215 198 189 184 180 180 177 175 179 182 184 185 184 178 190 226 167 94 123 133 128 131 138 148 140 117 101 95 97 106 114 122 114 109 113 104 62 277 117 51 359 104 144 154 139 196 169 179 248 213 225 171 144 150 170 199 152 152 223 255 273 272 194 139 113 181 216 244 251 249 247 242 235 225 222 225 216
204 202 203 211 213 202 194 201 211 217 222 211 198 193 183 180 177 173 176 176 179 182 179 184 180 199 224 157 103 155 140 132 133 147 153 140 129 121 105 104 103 102 105 103 101 97 88 77 164 130 78 43 138 172 163 152 200 183 186 212 209 230 145 130 143 181 202 139 174 205 248 265 273 103 99 80 209 220 249 256 258 257 250 245 236 233 236 229
197 196 199 205 201 191 176 171 178 188 209 211 199 190 179 178 175 172 172 170 173 166 153 173 184 237 243 151 117 156 155 162 166 170 165 147 136 133 125 116 103 97 98 95 96 92 78 63 63 117 106 147 183 190 174 179 195 193 228 221 181 213 195 147 139 157 160 128 186 213 252 272 254 121 123 147 194 220 243 254 257 257 255 249 242 240 239 236
189 195 198 198 197 191 178 171 176 184 207 205 192 179 168 167 165 162 160 157 152 141 134 125 176 247 263 113 128 172 152 161 173 179 179 166 142 135 140 131 113 113 117 108 108 111 85 90 121 223 181 197 209 206 200 205 205 191 218 238 194 217 231 184 141 131 161 196 217 219 237 261 265 263 210 176 186 212 244 260 262 265 262 253 244 240 237 234
183 190 196 200 204 196 184 180 177 190 202 190 177 151 142 138 136 135 137 137 115 102 109 17 164 226 219 158 154 129 122 137 157 167 183 179 157 154 171 159 146 151 148 144 164 176 157 161 216 203 180 207 206 206 214 221 246 207 197 223 218 217 241 250 155 136 179 208 236 236 237 252 261 269 266 241 217 218 243 260 264 266 264 261 254 247 245 236
179 182 189 199 208 194 176 173 177 195 185 162 141 124 116 114 117 121 136 157 150 142 180 181 181 202 149 144 116 92 113 131 140 144 162 164 158 164 167 152 164 186 183 176 169 171 183 178 204 212 193 203 202 214 230 4 357 311 193 240 242 225 229 220 101 101 204 230 241 246 252 257 259 264 267 264 252 242 248 253 256 258 256 257 254 251 250 241
175 172 176 179 169 142 146 161 176 193 168 148 140 130 130 141 146 152 172 213 229 348 345 221 168 124 93 115 110 112 116 120 135 137 155 160 162 167 156 156 174 205 217 196 141 146 263 205 198 217 213 205 202 206 245 43 19 344 322 280 254 261 245 143 102 91 92 264 253 249 258 263 265 267 267 269 267 261 256 251 250 249 245 245 245 248 245 241
176 168 161 151 116 109 118 130 164 200 180 161 167 197 182 169 181 161 166 205 264 26 354 6 48 68 84 109 133 140 125 120 163 145 162 171 179 186 167 172 197 197 190 108 107 122 231 229 217 214 188 136 165 152 86 335 313 288 273 273 248 248 245 105 93 108 132 266 266 268 274 271 267 268 268 267 265 261 256 250 248 246 244 243 243 245 244 243
180 174 166 151 125 120 119 112 179 203 188 179 201 246 307 319 213 120 160 208 168 80 355 16 45 87 73 102 153 175 178 154 154 158 172 178 196 209 168 181 214 193 143 141 155 165 207 232 216 140 94 87 98 155 208 239 259 255 252 262 258 241 212 104 90 113 162 244 277 296 293 283 280 274 266 260 258 258 254 249 251 250 248 245 243 245 244 244
184 180 176 164 146 150 168 232 252 214 192 202 224 247 297 309 161 110 277 228 161 149 198 204 206 146 118 127 178 201 196 159 163 170 175 182 194 215 175 191 216 181 158 190 203 205 212 222 151 106 117 136 133 169 194 212 233 233 239 251 245 141 233 211 94 131 199 235 285 307 298 285 283 275 262 251 244 252 258 255 255 253 250 248 248 251 248 246
191 190 188 178 170 183 202 242 272 256 223 231 238 243 264 253 177 138 287 253 155 151 178 192 272 187 159 134 179 201 209 159 165 162 171 188 176 165 197 206 213 194 192 207 213 230 222 86 79 127 155 186 169 168 192 208 226 221 222 239 251 282 308 329 26 315 242 231 265 295 287 272 273 269 265 251 223 241 254 253 252 244 242 247 249 252 248 245
199 198 199 190 186 197 217 247 262 242 230 236 239 235 239 231 201 317 269 240 204 157 154 185 189 203 167 133 169 193 210 151 95 121 165 195 186 154 190 222 224 214 208 203 216 241 226 93 129 151 157 199 193 191 201 212 235 220 208 225 251 285 344 5 354 328 275 240 190 295 292 269 277 276 270 267 233 242 238 230 239 238 233 235 235 237 238 239
210 205 202 195 192 197 209 243 214 205 210 226 233 224 224 222 193 214 225 240 234 170 148 177 176 177 165 153 158 150 208 189 83 63 143 190 287 173 184 168 225 238 201 182 221 257 157 125 162 153 154 174 199 226 204 204 240 235 209 239 252 272 313 292 305 296 284 303 159 225 285 281 291 282 273 276 274 269 255 239 244 246 239 235 231 232 236 238
215 213 208 197 191 191 190 204 176 175 195 233 225 213 211 210 186 227 215 236 241 166 143 166 191 173 159 156 166 166 197 147 114 100 124 137 228 19 228 178 165 233 164 152 230 222 138 157 179 168 168 173 201 232 186 196 232 238 14 355 191 206 230 244 275 254 282 327 261 199 235 272 274 269 269 271 271 270 261 252 251 248 244 244 241 239 243 252
208 212 213 205 196 194 184 117 179 189 271 264 212 203 199 197 197 246 216 232 221 140 143 140 115 133 129 138 176 167 102 124 140 148 81 18 227 210 233 201 194 194 172 186 221 173 133 173 184 176 185 200 202 205 158 195 221 43 49 30 77 94 115 185 255 264 286 320 275 191 181 261 263 250 252 250 257 263 259 255 256 249 241 239 240 238 240 250
194 202 210 208 202 203 201 200 214 226 271 264 197 190 184 187 221 221 212 228 170 114 126 134 128 135 136 149 170 144 110 118 120 129 123 132 257 267 240 227 223 185 171 215 235 42 65 186 204 189 199 211 149 49 30 207 198 129 133 91 85 89 75 107 263 290 286 277 268 180 170 253 285 244 208 205 239 254 255 257 256 239 171 153 154 150 162 180
193 191 205 204 198 202 208 229 239 233 279 267 185 171 172 189 215 194 194 214 177 117 84 132 159 163 158 163 175 174 165 104 74 128 145 163 167 219 272 284 272 167 158 248 264 78 84 51 325 224 219 160 104 68 25 22 112 144 149 115 105 117 88 211 255 315 275 263 262 164 174 220 296 249 182 188 238 244 250 245 192 141 134 141 144 148 156 159
196 186 193 196 195 197 200 231 232 226 277 235 169 160 179 206 224 204 196 173 161 148 139 155 154 158 171 177 174 175 172 126 137 155 151 156 170 181 183 170 196 175 187 240 234 154 145 171 160 141 41 109 112 91 46 46 127 159 165 155 161 174 169 221 208 163 245 248 98 94 183 210 257 245 141 119 347 309 262 237 184 173 167 159 154 155 155 155
195 191 187 194 200 201 199 217 226 221 217 158 162 177 200 183 228 227 195 99 163 180 158 161 161 167 182 187 179 170 170 152 163 177 172 174 182 184 194 193 173 181 222 221 203 154 193 207 161 105 21 190 158 121 84 86 186 201 186 176 200 218 201 224 212 193 233 230 102 24 314 232 248 258 247 235 258 255 252 272 292 287 272 256 210 165 156 161
191 193 192 196 202 205 209 219 234 221 196 147 163 273 201 185 213 220 197 163 169 159 129 138 159 170 179 187 180 162 167 170 172 184 185 181 196 200 206 212 194 201 235 206 188 175 194 208 162 152 180 209 200 175 149 169 187 195 190 181 199 212 217 231 220 215 231 208 75 26 21 252 259 272 265 248 250 250 258 290 306 297 281 277 271 224 182 179
201 196 191 199 204 209 212 217 228 218 183 138 78 227 177 202 220 210 210 200 112 72 100 127 148 165 177 185 172 158 168 192 173 179 185 183 205 209 207 217 210 216 240 204 197 193 212 243 181 178 165 173 200 215 193 169 178 199 203 199 211 216 231 239 233 241 239 151 112 184 195 234 246 332 342 278 290 285 280 288 284 281 272 266 271 265 252 221
212 205 199 196 206 213 214 216 221 206 169 128 51 208 187 204 217 207 212 191 131 107 110 134 146 164 181 180 151 169 183 216 179 183 190 190 208 209 203 210 207 208 210 210 210 191 221 243 163 153 143 166 186 217 196 165 176 200 204 217 230 235 244 253 298 287 299 349 206 193 235 246 259 309 297 278 281 269 255 242 234 251 249 231 260 257 248 239
198 209 219 207 208 214 212 212 205 186 163 130 142 210 205 209 204 191 195 185 164 138 128 146 157 174 189 179 180 192 198 105 173 183 202 208 226 222 215 211 199 200 200 202 204 185 220 248 125 120 150 170 183 208 181 187 188 178 186 210 224 13 285 253 218 93 68 282 250 209 254 271 286 292 273 251 255 255 253 252 245 245 226 202 240 248 229 217
198 203 215 215 219 214 205 203 189 171 158 136 174 206 235 261 232 163 162 199 169 147 146 170 185 190 194 187 189 189 181 150 170 189 196 194 229 227 218 221 203 201 204 207 221 210 219 258 131 168 179 162 6 356 137 352 13 160 192 195 114 44 335 254 247 231 223 251 252 228 250 265 275 279 258 207 237 241 246 258 258 256 244 221 232 239 201 173
232 223 228 217 213 205 191 188 175 158 147 148 186 207 227 238 259 66 110 192 171 170 184 205 197 191 198 199 189 176 176 175 174 191 195 180 215 212 201 210 208 203 208 213 229 218 204 232 216 203 208 124 86 220 195 124 54 34 286 193 126 222 222 210 225 239 237 245 255 246 251 255 246 254 267 262 259 260 261 264 263 262 257 248 250 243 161 156
228 231 250 201 196 198 182 174 161 143 156 167 192 212 200 210 244 264 244 286 231 189 201 214 208 203 212 214 195 169 176 187 173 182 202 188 198 200 188 193 199 201 204 206 214 194 181 222 222 29 332 128 134 202 206 173 137 22 308 239 199 252 234 214 211 219 237 246 254 255 255 249 239 248 262 267 269 274 276 277 274 273 269 264 268 277 124 150
208 242 234 169 182 190 172 162 152 157 188 184 198 200 177 196 217 211 225 283 308 213 207 219 216 208 208 215 199 169 178 196 186 188 205 189 189 196 181 186 186 188 197 200 209 206 178 215 221 140 109 183 180 203 203 185 170 181 219 211 195 202 249 281 244 222 234 245 248 255 258 257 255 254 259 267 276 280 282 287 280 279 279 273 281 346 45 165
211 247 195 156 172 172 157 153 162 181 202 213 206 203 188 188 198 194 194 202 271 338 14 281 246 208 184 183 184 164 174 200 199 198 207 198 204 208 171 194 184 159 175 196 207 209 191 206 214 171 179 209 207 199 201 199 187 189 200 203 205 200 185 232 237 213 218 244 252 261 267 269 267 264 267 273 280 287 300 313 296 285 280 278 294 45 279 261
209 221 161 156 171 164 153 174 195 177 222 227 210 213 198 166 186 185 177 178 215 252 71 312 295 257 221 201 178 147 161 192 201 204 213 213 218 216 150 209 181 156 161 191 202 204 198 215 222 210 202 203 171 105 88 339 253 231 223 215 215 207 196 216 224 196 190 210 263 277 270 272 269 263 270 271 275 315 350 349 296 280 280 289 315 320 285 275
211 215 9 165 178 170 161 203 200 188 226 224 221 222 193 171 189 182 174 182 192 182 178 207 216 218 239 233 156 132 165 191 208 215 224 226 228 215 127 134 160 167 177 194 192 184 154 209 225 229 222 172 119 109 88 52 299 254 244 223 219 221 217 225 233 235 210 194 210 241 243 261 268 252 230 258 91 58 286 247 257 272 290 298 296 297 304 294
216 225 338 197 192 183 180 203 201 206 218 215 223 225 209 203 201 183 178 188 191 189 193 204 205 204 210 190 160 172 189 197 216 225 235 236 231 85 122 152 163 179 192 203 168 158 164 202 212 223 229 205 181 183 173 157 194 230 234 217 217 227 226 227 83 258 247 225 226 238 240 255 263 182 121 177 157 208 234 215 218 253 273 283 294 309 311 308
202 223 252 229 208 196 204 219 207 212 216 213 214 215 214 216 208 198 194 192 195 202 203 204 204 199 188 171 157 165 191 206 220 224 240 244 215 75 132 180 186 205 204 109 99 155 181 210 196 206 225 216 207 211 203 187 180 202 226 218 215 215 210 210 207 216 235 237 235 240 245 257 265 266 248 211 187 219 243 233 221 231 250 271 293 311 318 330
194 208 207 201 208 224 242 262 249 230 217 210 211 214 214 216 212 208 210 205 198 204 210 208 204 208 203 193 191 195 201 213 225 213 224 234 204 105 20 195 210 234 159 105 115 152 160 251 216 220 233 232 239 287 75 140 166 189 210 211 214 214 208 211 221 222 229 238 242 240 242 255 265 267 264 255 236 233 249 256 249 229 218 241 262 289 312 308
210 214 194 183 189 220 230 236 233 234 222 211 208 210 215 218 214 205 216 219 202 199 214 215 204 208 210 208 216 221 212 211 219 223 227 229 202 110 62 53 328 6 85 90 19 89 128 240 230 232 244 251 263 286 77 123 192 210 214 210 211 214 210 209 222 228 229 237 245 243 239 248 260 266 267 268 271 272 267 267 268 257 231 201 199 266 283 263
215 223 209 199 202 207 211 215 213 216 222 218 214 216 218 219 217 205 206 218 213 206 211 216 212 212 211 208 214 225 222 217 218 225 231 233 222 202 132 91 75 99 108 47 359 68 162 243 242 245 259 264 271 276 272 276 268 244 239 234 219 209 203 207 224 231 229 233 248 256 255 255 259 264 268 272 277 278 276 280 281 271 248 200 196 240 251 253
217 235 231 236 237 211 205 196 195 207 216 217 219 223 220 218 219 213 200 205 217 213 211 217 216 213 215 218 219 224 224 221 221 223 222 222 221 222 219 194 146 102 114 96 19 128 162 248 245 253 273 274 275 274 269 270 269 260 255 252 246 230 212 209 221 228 229 236 248 257 261 261 259 262 271 279 280 278 281 285 281 269 245 211 222 236 237 244
210 218 215 233 247 229 222 189 183 200 212 212 218 223 220 220 220 216 205 201 206 207 209 219 222 216 218 222 222 226 227 226 232 229 217 213 211 212 218 202 163 131 146 147 171 192 183 209 208 202 265 269 267 268 263 258 256 258 257 252 252 250 235 222 223 226 232 240 243 247 255 262 262 263 271 278 277 276 277 274 271 265 251 237 240 243 246 252
217 224 226 233 228 215 213 199 193 197 201 203 213 216 216 219 218 215 211 205 207 211 207 214 223 222 221 221 222 227 230 231 242 250 244 241 234 219 217 203 177 165 167 167 166 167 186 204 180 162 221 252 249 250 253 252 249 250 255 248 238 238 238 233 229 228 229 234 239 243 248 256 263 266 268 271 272 272 270 270 269 263 255 252 253 252 252 257
217 224 223 228 227 209 198 198 202 204 200 197 207 212 215 219 217 216 215 205 213 224 220 217 223 223 223 226 224 226 232 250 290 314 331 308 296 283 258 240 216 189 167 171 169 164 184 205 198 189 217 249 246 241 242 247 247 239 238 236 229 228 233 237 240 238 233 232 235 241 241 247 261 269 267 264 265 266 267 268 266 261 260 261 260 256 254 255